Home   Weather   Rouyn-Noranda   Past weeks

Flag for Canada Past Weather in Rouyn-Noranda, Quebec, Canada — Yesterday and Last 2 Weeks

30 °F

Light snow. Mostly cloudy.

Feels Like: 23 °F
Forecast: 26 / 35 °F
Wind: 8 mph from Northwest

Location: Rouyn Airport

Current Time: Oct 25, 2016 at 8:04:10 AM

Latest Report: Oct 25, 2016 at 7:00 AM

Visibility: 6 mi

Pressure: 30.26 "Hg

Humidity: 93%

Dew Point: 28 °F

Location of Rouyn-NorandaLocation

Past Weather in Rouyn-Noranda — Graph


Rouyn-Noranda Temperature Yesterday

Maximum temperature yesterday: 34 °F (at 1:00 AM)
Minimum temperature yesterday: 30 °F (at 8:00 AM)
Average temperature yesterday: 32 °F

High & Low Weather Summary for the Past Weeks

High70 °F (Oct 12, 3:00 PM)100% (Oct 11, 4:00 AM)30.49 "Hg (Oct 11, 4:00 AM)
Low23 °F (Oct 10, 7:00 AM)43% (Oct 10, 3:00 PM)29.24 "Hg (Oct 18, 10:52 AM)
Average43 °F80%29.98 "Hg
* Reported Oct 10 7:00 AM — Oct 25 7:00 AM, Rouyn-Noranda, Weather by CustomWeather, © 2016

Note: Actual official high and low records may vary slightly from our data, if they occured in-between our weather recording intervals... More about our weather records


Rouyn-Noranda Weather History for the Previous 24 Hours

Scroll right to see more
Time TempWeatherWind HumidityBarometerVisibility
7:00 AM
Tue, Oct 25
30 °FLight snow. Mostly cloudy.8 mph93%30.26 "Hg6 mi
6:00 AM32 °FLight snow. Passing clouds.13 mph80%30.23 "Hg15 mi
5:00 AM32 °FLight snow. Overcast.15 mph80%30.22 "Hg15 mi
4:00 AM32 °FLight snow. Overcast.12 mph75%30.20 "Hg15 mi
3:00 AM32 °FLight snow. Overcast.12 mph75%30.19 "Hg15 mi
2:00 AM32 °FLight snow. Overcast.10 mph75%30.18 "Hg15 mi
1:00 AM32 °FLight snow. Overcast.13 mph75%30.17 "Hg15 mi
12:00 AM32 °FOvercast.15 mph69%30.17 "Hg15 mi
11:00 PM
Mon, Oct 24
32 °FOvercast.12 mph75%30.16 "Hg15 mi
10:00 PM32 °FOvercast.15 mph69%30.16 "Hg15 mi
9:00 PM32 °FLight snow. Overcast.7 mph80%30.15 "Hg15 mi
8:00 PM32 °FLight snow. Overcast.12 mph80%30.13 "Hg15 mi
7:00 PM32 °FLight snow. Passing clouds.13 mph80%30.12 "Hg4 mi
6:46 PM32 °FLight snow. Overcast.10 mph87%30.11 "Hg2 mi
6:00 PM34 °FOvercast.15 mph75%30.10 "Hg15 mi
5:00 PM34 °FOvercast.12 mph70%30.08 "Hg15 mi
4:00 PM34 °FOvercast.16 mph70%30.06 "Hg15 mi
3:00 PM34 °FOvercast.14 mph70%30.04 "Hg15 mi
2:00 PM34 °FLight snow. Overcast.18 mph75%30.03 "Hg15 mi
1:00 PM34 °FLight snow. Overcast.16 mph75%30.02 "Hg15 mi
12:00 PM32 °FLight snow. Overcast.12 mph87%30.00 "Hg12 mi
11:00 AM32 °FLight snow. Overcast.13 mph80%29.98 "Hg12 mi
10:00 AM32 °FLight snow. Overcast.13 mph80%29.96 "Hg12 mi
9:00 AM30 °FLight snow. Overcast.13 mph93%29.94 "Hg3 mi
8:00 AM30 °FLight snow. Overcast.13 mph86%29.91 "Hg15 mi
Weather by CustomWeather, © 2016

See weather overviewHow to use our weather pages